Theta_e
330 321 316 314 297 295 292 297 303 303 305 310 312 315 316 320 319 312 332 343 343 346 352 354 358 360 362 363 363 363 362 362 362 361 360 359 357 355 353 352 350 347 343 340 338 336 335 335 335
324 320 312 308 294 289 293 302 301 306 309 314 317 316 317 319 326 332 338 343 344 346 349 349 357 359 362 362 362 361 362 362 362 361 360 358 357 355 352 349 346 344 341 339 336 335 335 337 337
327 327 312 297 294 293 294 302 304 309 313 317 315 319 319 322 327 330 343 343 343 345 346 349 357 358 361 362 361 360 361 361 361 360 359 357 356 354 352 349 347 343 341 338 336 336 337 338 338
318 315 308 293 292 298 302 305 308 309 314 318 318 316 324 331 330 336 347 343 342 342 346 355 356 356 359 361 361 360 360 361 361 360 358 356 355 354 351 349 347 345 340 339 339 340 340 340 340
322 312 297 292 294 300 305 308 308 307 311 316 317 317 321 331 335 348 347 345 340 338 347 353 356 356 356 359 359 359 359 359 359 359 358 356 355 353 351 349 346 345 344 342 342 344 344 344 344
311 306 296 294 298 303 306 307 307 307 313 314 314 316 318 331 333 340 345 343 342 339 349 351 357 357 355 355 357 357 357 357 357 357 356 355 354 352 350 349 347 346 347 346 346 346 345 346 346
308 303 295 296 298 301 306 309 306 306 307 311 315 314 321 326 331 337 341 344 343 344 347 347 352 355 357 355 354 353 354 354 354 354 353 353 352 351 350 348 347 347 347 347 347 347 347 347 347
306 309 303 303 302 303 310 312 310 306 308 314 318 311 314 327 332 334 338 339 341 347 347 347 347 350 351 351 355 353 353 352 351 352 352 352 352 350 349 346 346 347 347 347 347 347 347 348 347
309 298 301 303 304 306 312 308 313 315 310 312 315 315 327 331 331 328 329 333 340 347 346 346 345 346 346 347 351 353 353 353 352 351 351 349 343 343 342 344 345 347 347 348 348 348 348 348 348
302 297 299 308 309 307 310 310 311 312 309 309 312 319 329 329 328 325 325 325 335 343 346 345 344 343 340 344 345 346 346 346 345 344 343 341 336 335 340 342 346 346 347 348 348 348 348 347 340
301 299 304 306 310 311 311 312 315 312 307 308 309 313 323 326 326 326 325 324 328 341 348 348 345 343 338 338 341 345 344 343 342 339 338 338 338 334 338 332 338 336 344 339 343 343 343 340 338
296 302 305 306 309 308 307 311 310 312 311 313 314 315 316 318 324 324 324 324 329 335 345 348 345 341 338 337 342 342 340 340 340 340 338 338 335 333 329 331 331 332 336 335 334 336 338 336 336
297 300 303 306 308 308 310 308 308 309 314 317 317 316 315 315 322 327 329 329 328 332 339 341 347 343 341 339 343 342 340 340 338 339 339 338 336 332 331 329 330 330 334 334 332 333 335 335 336
296 298 300 302 303 304 305 307 309 310 314 316 315 314 315 314 320 323 327 329 329 329 332 333 333 347 345 344 344 343 343 342 341 341 340 338 337 333 331 330 331 331 333 334 332 331 333 335 336
298 293 297 299 301 301 304 300 303 310 312 312 315 315 315 314 318 320 325 327 329 329 330 334 341 346 348 347 347 350 346 345 343 342 341 339 336 336 333 332 332 332 333 331 333 330 332 335 337
292 292 286 293 299 301 300 293 302 306 308 310 313 315 316 315 316 320 321 325 329 329 328 337 348 351 350 348 347 347 348 347 345 345 344 342 339 337 336 335 332 333 332 332 332 331 330 332 336
289 284 286 290 296 297 297 295 302 305 306 306 309 312 315 315 315 317 320 322 326 328 329 332 340 351 351 351 350 348 346 344 344 344 345 346 342 339 340 336 336 333 333 333 332 332 331 329 330
285 286 289 289 293 295 293 294 300 304 305 305 306 308 313 314 315 316 319 322 322 325 325 330 332 346 350 352 348 346 345 345 345 344 344 346 345 343 338 340 337 336 335 331 331 329 330 328 331
292 291 290 293 297 294 292 293 296 300 300 302 305 306 308 312 316 317 318 319 325 328 333 332 332 336 344 341 340 338 338 336 338 340 341 344 348 344 342 340 339 339 335 332 331 329 327 328 328
291 289 289 293 297 294 292 292 295 297 299 301 302 305 306 310 312 315 316 318 318 324 332 332 331 333 339 339 335 332 331 332 333 337 341 343 347 347 343 341 340 337 336 332 332 331 327 327 326
290 288 288 289 293 294 292 289 292 296 298 301 303 305 306 307 310 313 315 317 319 326 332 332 332 333 334 334 333 332 332 331 335 336 338 342 346 346 345 341 340 338 336 334 332 330 326 323 324
286 293 293 291 288 282 291 281 289 293 294 298 300 302 303 305 309 311 312 315 320 326 330 330 332 333 335 335 330 331 330 329 328 336 340 342 345 345 344 342 340 340 338 334 333 332 328 327 324
290 295 293 292 288 287 287 282 287 292 292 294 297 300 303 305 307 309 309 310 314 324 324 330 333 332 331 334 333 332 329 331 333 338 340 340 341 343 343 341 339 339 340 338 334 331 329 329 328
296 292 291 290 287 280 286 285 285 288 291 294 297 300 302 304 308 308 310 310 311 313 319 319 328 331 330 332 335 332 332 333 335 339 338 337 337 339 342 343 342 340 339 338 334 333 331 331 330
291 286 281 276 276 278 287 285 286 291 295 297 297 299 302 303 305 308 309 310 312 311 312 315 322 327 333 332 336 334 333 334 336 339 337 336 334 334 336 339 339 340 340 338 335 334 332 330 329
287 287 278 274 277 279 286 282 286 294 296 299 301 300 302 303 304 306 308 311 312 313 312 312 313 322 330 333 339 338 336 342 340 340 338 336 335 334 337 339 339 340 340 337 337 335 331 330 329
287 285 292 283 285 280 282 287 292 296 297 297 298 300 299 300 305 306 308 310 312 313 314 314 315 320 334 334 336 338 335 341 339 337 337 336 335 337 339 340 337 339 339 337 335 333 330 329 327
289 292 281 284 276 275 280 282 284 291 292 295 295 297 300 304 308 307 307 309 310 311 315 317 323 330 332 333 334 338 340 343 339 338 336 336 335 337 338 338 339 337 336 334 331 329 328 328 327
288 286 287 285 283 277 275 279 296 292 293 293 295 298 300 304 307 310 310 319 321 320 321 320 327 332 335 338 339 340 342 343 341 340 339 338 338 339 339 339 336 335 335 334 328 327 329 326 325
292 290 287 281 280 283 281 281 296 294 295 296 296 299 301 304 305 309 312 324 329 329 331 330 335 337 339 340 340 341 342 344 342 340 341 341 338 339 338 336 335 334 332 332 329 328 329 325 324
Wind_Speed
5 6 3 3 4 2 6 10 14 16 13 12 6 10 7 7 7 6 9 14 18 18 17 19 23 22 21 19 17 16 15 14 14 13 12 12 11 12 13 10 9 9 9 7 7 6 7 6 6
5 4 2 3 4 3 8 17 20 22 22 9 8 6 8 3 8 14 14 15 20 18 15 16 23 23 22 20 18 17 17 16 15 14 13 13 11 10 11 10 9 9 8 8 7 6 5 5 5
5 5 1 4 4 9 8 9 12 18 23 5 4 5 4 12 8 5 17 19 20 15 13 16 22 22 22 20 18 17 17 16 16 15 14 13 12 11 10 10 9 9 9 8 7 6 5 6 5
3 2 4 0 11 13 23 18 17 18 18 4 6 5 6 8 7 10 18 20 19 16 13 20 22 22 22 21 19 17 17 17 16 16 15 14 13 12 11 11 10 9 10 9 9 8 7 6 5
1 3 3 5 11 15 19 18 15 16 15 2 4 1 10 6 19 23 20 18 20 15 12 16 23 22 22 21 21 19 18 17 16 16 16 16 14 13 12 12 11 11 11 11 10 10 9 8 7
2 2 2 7 15 18 19 13 12 13 5 9 7 3 5 15 24 18 17 15 16 18 15 15 20 21 21 20 20 19 18 18 18 17 17 16 15 14 13 13 12 12 12 11 11 11 9 8 7
6 3 7 9 15 19 19 12 11 7 6 6 3 2 3 8 19 18 18 18 16 15 15 14 14 16 19 19 19 18 18 18 18 18 17 17 16 16 15 14 14 13 12 12 12 11 10 9 8
4 5 14 12 13 22 20 17 10 7 12 6 3 5 1 11 18 19 16 18 17 14 14 13 12 11 11 11 17 17 17 17 17 17 17 17 17 16 16 15 15 14 14 13 12 11 10 10 8
3 7 14 19 18 22 19 15 17 12 7 5 5 3 4 15 12 8 9 13 15 14 15 14 13 11 10 9 11 14 16 16 15 15 16 13 7 8 12 12 15 15 14 13 13 12 10 10 9
6 8 18 17 15 17 17 16 19 15 10 9 7 6 5 10 17 9 10 12 18 17 16 17 16 15 12 10 9 8 8 7 7 7 7 6 6 6 10 12 16 16 15 14 14 12 11 10 4
7 19 13 16 18 20 21 19 19 17 14 9 7 9 11 9 8 18 17 12 15 18 14 16 17 16 16 11 8 6 6 5 6 7 7 7 6 6 7 4 7 5 14 6 9 7 5 5 5
17 19 18 19 20 24 26 21 22 16 15 11 7 6 3 16 10 9 8 7 13 10 14 12 14 14 12 8 9 8 8 7 6 9 11 8 6 7 5 6 6 6 6 6 5 4 6 6 7
19 16 17 19 21 24 25 25 21 22 17 17 13 9 9 14 12 9 14 8 5 18 7 5 14 16 15 11 8 9 10 9 9 9 11 10 9 8 8 5 6 7 7 7 7 6 8 8 10
8 14 16 15 18 18 20 23 22 23 16 18 14 10 8 9 11 10 18 3 6 5 10 17 9 10 13 12 11 10 9 10 9 9 11 15 10 9 8 9 7 8 9 8 8 8 9 8 9
11 12 16 14 15 18 11 17 23 17 15 19 16 11 8 8 11 11 11 19 12 7 9 20 7 6 12 15 10 8 9 8 10 10 12 15 13 11 12 9 9 7 9 8 9 8 5 7 9
8 9 7 2 9 16 8 24 23 10 13 15 14 20 18 10 9 11 7 10 17 16 20 28 15 13 10 8 7 6 6 6 7 9 9 14 15 14 12 9 10 6 6 9 7 8 8 8 8
6 8 10 15 11 10 10 23 25 15 14 14 15 17 17 14 9 10 10 8 9 15 12 13 17 19 17 10 7 6 6 5 5 5 7 13 14 15 12 10 7 10 6 7 8 5 8 4 4
8 9 11 13 5 10 14 19 18 20 20 18 16 13 15 19 19 14 13 10 11 11 13 12 9 15 13 9 6 3 4 5 5 7 6 10 12 15 14 8 8 9 9 5 4 5 4 4 4
12 15 14 15 12 13 11 18 19 13 14 18 20 20 17 19 22 17 13 8 9 8 9 11 12 10 10 4 5 4 5 4 3 5 8 8 11 14 13 9 8 7 9 7 6 4 6 2 3
10 14 15 13 9 12 13 19 19 15 16 16 13 19 21 13 13 16 19 18 10 10 11 12 13 11 8 7 4 4 4 4 4 6 9 8 11 13 13 11 7 8 5 6 6 5 3 2 4
12 14 16 19 13 13 12 16 21 20 14 15 17 9 7 11 14 14 10 8 8 9 13 14 14 14 11 10 4 2 2 1 1 3 7 6 10 12 12 10 8 6 5 5 5 6 7 4 2
15 11 15 17 13 11 5 17 14 19 21 13 14 13 10 10 9 17 14 8 6 7 7 10 10 10 9 9 6 8 8 7 6 4 4 5 9 10 11 10 8 6 5 6 5 5 5 5 4
15 16 19 15 17 14 12 8 12 7 19 15 12 18 16 12 10 11 12 10 9 9 7 7 9 11 11 11 11 9 6 5 4 3 7 5 6 8 9 8 7 6 4 5 7 6 6 4 4
13 15 16 12 9 13 15 10 20 11 18 19 14 14 17 19 14 12 11 11 10 9 10 10 10 13 14 14 12 11 10 8 5 4 5 4 4 4 8 9 6 6 5 5 5 6 7 5 4
7 5 5 5 4 15 13 13 18 12 15 13 12 15 17 17 11 13 15 11 14 10 10 9 11 15 15 14 13 12 10 9 8 8 7 8 4 3 5 6 5 4 5 4 6 6 6 6 3
9 5 5 5 4 8 19 8 11 10 13 20 22 17 16 13 13 12 13 16 16 16 13 10 10 10 12 12 12 9 10 5 5 8 8 6 5 5 6 7 6 6 5 5 6 4 4 5 5
4 3 9 5 10 4 6 12 13 11 16 21 23 24 22 24 25 18 18 11 14 15 16 15 15 11 12 14 10 8 7 7 9 10 8 6 5 6 7 8 7 6 7 7 7 4 5 5 5
7 2 2 5 4 4 5 12 5 14 17 18 20 22 25 24 26 19 12 9 9 9 10 12 13 15 13 11 10 8 8 9 11 11 9 9 7 7 7 7 7 7 6 7 7 5 4 6 4
13 2 5 4 2 3 4 3 3 8 11 16 18 20 23 21 21 18 10 6 7 7 8 9 9 12 10 10 8 9 8 12 12 10 9 9 7 7 9 8 7 7 8 8 6 5 6 6 6
13 6 3 2 3 5 4 9 6 4 7 10 18 17 23 20 18 23 17 16 4 8 8 11 10 13 12 10 8 8 8 12 12 10 11 9 8 8 9 9 8 8 7 7 7 6 6 7 6
Wind_Direction
300 273 288 307 50 111 251 252 242 271 272 251 218 97 151 129 156 189 148 122 138 147 156 155 145 142 139 142 144 143 139 141 139 136 135 132 136 139 133 134 136 133 136 134 133 132 126 120 114
309 262 273 273 122 275 269 242 248 245 251 262 74 37 75 55 118 120 107 145 146 150 154 156 147 144 143 145 148 148 145 146 141 140 142 143 145 148 145 150 150 147 148 147 147 142 134 127 129
283 245 87 168 207 225 251 258 286 299 307 143 86 73 76 158 102 115 120 138 136 150 158 156 149 146 145 146 150 151 149 148 145 147 150 155 156 159 159 165 163 167 164 161 158 153 153 152 154
300 311 303 118 259 260 239 269 280 290 301 91 119 124 63 131 109 142 132 141 135 152 166 156 151 150 150 152 152 155 153 154 153 153 158 164 169 170 170 174 174 180 177 174 172 168 179 184 173
224 281 239 251 252 259 268 271 276 289 288 15 96 205 120 129 124 133 142 145 142 155 161 156 153 156 156 156 156 160 160 159 159 160 167 173 176 176 177 182 185 190 184 187 183 181 188 190 193
281 191 267 243 259 265 272 282 293 280 251 278 357 193 181 144 134 150 144 144 147 152 153 157 156 162 159 160 162 162 165 164 164 168 175 176 178 181 182 188 193 195 192 194 192 192 192 200 206
232 252 240 253 266 279 280 286 285 298 307 286 265 272 128 147 144 146 148 144 148 146 145 157 156 165 160 163 167 168 172 170 171 174 177 179 182 184 186 191 195 198 198 200 200 199 196 204 212
253 241 259 260 269 279 284 297 290 310 300 290 335 291 181 173 161 149 153 149 146 141 146 151 154 160 156 164 170 174 178 178 179 180 184 183 187 187 190 193 198 202 202 203 205 207 202 212 215
310 239 237 238 241 260 283 293 300 299 310 302 298 281 171 137 150 130 153 158 148 152 154 151 156 160 157 159 174 177 185 184 187 189 189 186 185 190 195 196 203 204 205 205 209 211 211 220 223
205 231 236 247 255 262 274 285 288 310 306 302 328 333 83 136 151 146 188 178 169 163 164 161 158 166 161 171 171 171 182 186 186 188 192 182 179 186 194 201 205 208 206 206 212 213 214 225 214
233 241 253 259 267 278 282 286 308 310 312 273 276 6 334 144 147 173 192 196 179 172 163 165 166 163 167 176 166 175 182 184 189 185 181 181 191 198 201 193 205 200 209 207 210 211 213 208 208
246 245 238 254 261 275 276 293 289 294 287 286 299 326 3 319 180 194 215 187 78 38 143 158 162 161 171 169 174 173 177 184 188 196 188 183 196 197 199 196 193 189 193 192 192 195 204 212 217
258 269 265 251 242 247 267 267 271 279 285 293 297 319 320 311 257 95 83 65 54 105 58 273 181 169 170 172 176 178 186 187 194 190 194 192 195 197 199 199 187 190 184 188 198 199 205 213 221
293 290 280 273 270 262 252 259 263 260 269 271 278 285 288 289 277 129 115 101 96 56 154 211 219 169 165 177 176 184 187 189 187 193 195 199 195 197 196 205 199 187 189 186 197 204 204 211 214
320 314 301 276 274 274 299 280 252 263 255 264 277 266 259 260 278 262 154 156 161 149 98 303 217 184 187 186 181 175 184 186 189 195 193 197 197 193 198 199 205 189 189 188 197 209 199 212 216
295 283 288 313 280 258 259 271 266 281 259 262 264 267 266 257 270 271 227 177 178 179 170 206 197 185 189 188 194 189 189 182 185 195 192 197 197 197 196 197 202 187 172 194 190 202 213 216 209
244 258 258 277 258 268 233 257 263 264 265 255 254 250 264 256 254 273 273 219 180 173 179 177 175 184 186 187 196 194 187 205 195 193 192 200 198 195 195 200 190 189 183 189 198 195 209 195 189
255 267 269 264 275 250 264 261 269 253 244 245 250 250 249 258 251 256 255 243 225 195 181 173 164 169 171 171 167 184 197 217 204 216 215 184 199 194 197 192 180 181 200 193 174 173 189 166 172
276 284 290 300 322 324 301 291 291 295 302 265 241 240 247 243 250 250 252 259 263 229 177 167 158 167 161 150 162 183 204 201 211 219 223 189 193 189 191 193 180 170 192 191 183 166 182 176 143
317 308 297 287 292 296 300 292 293 294 290 291 285 245 232 224 229 245 257 257 233 228 198 170 170 166 166 160 171 164 173 202 190 209 222 199 182 184 183 182 172 185 156 183 178 161 120 136 165
305 293 297 289 289 269 285 283 293 289 275 285 287 260 260 250 243 231 234 239 261 225 193 176 180 180 179 178 148 134 53 344 220 228 222 200 166 164 172 178 182 171 171 175 177 160 153 154 210
291 299 307 313 304 272 257 278 270 293 293 292 286 282 262 250 256 237 232 227 208 236 196 170 176 178 183 179 174 180 205 209 231 186 204 162 161 159 156 165 163 163 177 171 163 159 147 124 166
314 325 310 305 298 307 274 273 279 274 285 282 277 284 292 262 234 228 220 217 212 175 204 203 183 190 194 192 196 191 190 197 193 172 162 143 147 151 147 155 166 166 167 177 157 152 151 155 145
323 319 289 296 271 269 271 252 273 264 268 281 282 283 280 276 260 220 221 224 222 197 187 191 190 202 202 200 192 182 179 189 186 146 149 137 128 138 152 160 153 153 162 161 164 160 162 157 161
338 11 334 304 243 257 260 251 252 255 258 276 296 291 281 271 289 271 252 230 229 221 205 198 191 203 202 197 192 187 176 182 183 161 151 144 138 132 149 124 138 148 157 172 156 143 151 160 162
260 167 173 287 292 302 307 273 265 302 306 1 337 319 283 289 278 272 268 232 218 218 216 204 199 197 187 191 186 167 172 157 163 157 155 146 154 147 154 137 156 163 169 148 135 138 149 161 179
293 238 218 252 258 253 227 278 275 20 8 0 348 334 330 322 305 271 260 232 213 217 221 217 224 217 182 181 160 157 160 154 148 137 141 146 140 160 158 163 158 153 152 145 150 153 162 165 179
193 208 120 198 263 297 297 303 317 2 350 344 342 337 324 316 319 271 256 252 241 207 192 198 186 173 166 153 153 155 160 150 146 143 150 156 165 164 149 145 146 147 148 133 139 157 186 167 177
308 10 61 266 232 229 295 274 34 10 345 337 324 328 318 309 315 314 295 235 243 211 178 164 147 135 139 144 150 150 157 155 145 150 150 156 148 144 142 141 144 147 145 151 149 171 171 163 168
293 46 94 127 315 244 234 270 139 114 11 341 316 321 309 303 325 318 340 300 332 153 138 140 137 135 139 145 139 146 136 142 140 143 145 143 140 133 136 141 153 154 153 143 158 167 160 172 182